Wind_Speed
20 20 20 21 21 20 20 19 20 19 19 19 21 21 20 20 20 20 19 19 19 18 18 18 17 17 17 16 16 16 16 16 15 16 16 16 17 17 16 16 16 16 16 16
20 20 20 21 21 22 21 20 20 20 20 21 21 21 21 21 20 20 19 19 18 18 18 18 17 17 17 16 16 15 15 16 16 15 16 16 16 15 15 16 16 16 16 16
21 21 22 22 21 22 22 22 22 21 21 21 20 22 21 21 21 21 20 19 18 18 18 17 17 17 17 17 16 16 16 16 15 15 16 16 15 15 15 15 15 16 16 16
23 23 24 23 23 23 22 22 22 22 21 20 20 21 21 22 22 21 20 20 19 18 18 17 16 16 17 17 17 17 17 17 16 16 15 14 14 14 15 16 16 16 16 16
25 25 25 24 24 22 22 23 22 22 22 21 21 21 22 22 22 22 21 20 19 19 18 17 17 17 17 17 17 17 17 17 16 15 15 14 14 14 15 16 16 16 16 15
26 27 27 26 25 24 24 25 23 24 24 23 23 23 23 23 22 21 20 20 19 18 18 18 18 18 18 17 17 17 17 17 16 16 16 15 14 14 15 16 16 15 15 15
28 29 29 28 26 25 26 25 24 24 24 24 24 25 24 23 22 22 21 20 19 19 18 18 18 18 18 17 17 17 16 16 17 17 16 15 15 15 15 16 16 15 15 15
29 30 29 28 27 27 27 26 26 26 25 25 25 25 24 24 23 22 22 21 20 20 19 18 18 18 18 18 17 17 17 17 17 17 17 17 17 16 16 16 15 16 16 16
29 29 29 29 29 28 28 28 28 27 27 26 26 24 24 24 23 23 22 21 21 21 21 20 20 19 19 18 18 18 18 18 18 19 19 19 18 18 17 17 17 17 17 18
29 29 28 28 29 30 29 29 29 27 27 27 27 26 25 25 24 24 23 23 22 22 22 21 21 20 20 19 19 19 19 19 19 20 20 20 20 20 19 19 19 19 19 19
29 29 29 29 29 30 30 30 29 28 28 28 27 27 27 27 26 26 25 24 24 24 23 22 22 21 21 21 21 20 20 20 20 21 20 20 21 21 21 21 21 21 21 20
29 29 29 29 29 29 29 29 29 29 29 29 29 28 28 27 27 26 26 25 25 24 24 23 23 23 23 22 22 22 22 21 21 21 21 21 21 21 21 22 22 22 22 22
30 30 30 30 30 29 29 29 29 29 29 30 30 29 28 28 27 27 27 26 26 25 24 24 25 24 24 23 23 23 22 22 22 22 21 21 22 22 22 22 23 23 23 23
30 30 31 30 30 30 30 29 29 29 30 30 30 29 29 28 28 28 28 27 27 26 26 26 25 25 25 25 25 24 24 23 23 23 23 23 23 23 23 23 23 24 24 25
31 31 31 30 30 30 30 29 29 28 30 31 31 30 29 28 28 28 28 28 28 27 27 27 26 26 26 26 26 25 25 25 24 24 24 25 25 25 24 24 24 25 26 26
30 30 30 30 29 30 30 31 30 29 30 30 30 30 28 28 28 27 28 28 29 29 28 27 27 27 27 26 26 26 26 26 26 26 26 26 26 26 26 26 26 26 26 27
30 30 30 30 30 30 30 30 31 30 30 29 28 28 28 28 28 27 28 28 29 29 29 28 27 27 27 27 27 27 27 27 28 28 27 27 28 28 27 27 27 27 27 27
30 29 29 29 29 29 30 30 30 29 29 28 28 28 28 28 28 28 27 27 28 28 28 28 28 29 29 29 28 28 28 28 29 29 29 29 29 28 28 28 28 28 28 28
30 29 29 29 29 29 28 28 28 28 28 29 28 29 29 28 28 28 28 27 27 27 28 29 30 30 30 30 30 29 29 29 29 29 30 30 29 29 28 28 29 28 28 28
30 29 29 29 28 28 27 27 27 27 26 27 28 28 28 28 28 28 28 28 28 29 29 30 30 31 31 31 30 30 30 30 30 30 30 30 30 30 30 30 30 30 29 29
29 28 28 28 29 28 27 27 27 27 26 26 27 28 28 28 28 29 29 29 29 30 30 30 30 30 31 31 31 31 31 31 30 30 30 30 30 30 30 31 31 31 31 30
28 28 27 27 28 27 26 26 26 26 26 26 26 26 27 27 28 28 29 30 30 30 30 30 30 30 31 32 31 31 31 31 31 31 31 31 30 30 30 31 31 31 31 31
27 27 27 28 27 27 26 26 27 27 27 25 25 26 26 27 27 28 28 29 29 29 30 31 31 30 30 31 31 31 31 31 31 30 31 31 31 31 31 31 31 32 32 32
27 27 27 27 27 27 27 27 27 27 27 26 26 26 27 27 27 27 28 28 28 29 29 29 30 30 30 31 32 32 31 31 31 31 32 32 32 31 31 31 31 31 31 31
28 28 28 27 26 27 27 27 27 27 27 26 26 27 27 28 27 27 27 27 27 28 28 29 29 30 30 31 32 32 32 32 32 32 32 32 32 31 31 30 31 31 31 31
28 28 28 27 27 27 27 28 27 27 27 27 28 27 27 27 27 27 27 28 28 28 28 29 29 30 31 31 31 32 32 32 31 31 31 31 31 31 31 31 31 31 31 32
28 28 29 28 28 28 28 28 28 28 27 28 28 28 28 28 28 28 28 28 28 29 29 29 30 30 30 30 30 30 30 30 30 30 30 30 30 31 31 31 31 31 32 32
Wind_Direction
264 264 267 269 269 267 268 268 269 270 271 274 276 277 280 283 287 287 287 284 283 281 278 275 272 269 267 267 269 272 270 271 272 270 271 272 274 275 273 274 272 271 270 272
266 266 265 266 267 268 270 271 272 271 273 274 277 277 278 282 286 286 285 285 285 282 278 274 271 268 266 267 268 270 269 271 271 271 272 272 275 274 275 275 273 273 272 273
266 266 267 267 270 270 270 269 270 273 274 274 276 277 278 279 281 282 282 285 285 283 279 272 270 268 267 268 269 268 270 272 271 272 271 271 272 271 274 274 272 272 275 275
266 266 267 272 271 270 269 269 270 270 272 274 275 275 275 275 276 279 283 286 284 282 278 272 270 269 269 271 270 269 270 272 271 273 269 270 270 271 272 271 270 272 275 274
264 265 268 271 271 270 271 271 271 272 272 271 270 270 272 274 275 277 280 282 282 280 274 270 270 269 270 271 270 269 270 270 268 267 267 270 272 271 272 272 271 272 273 274
266 266 267 270 272 273 272 269 270 272 272 271 270 269 271 273 275 277 278 280 279 276 273 270 270 270 271 271 269 268 268 267 263 264 269 270 270 271 273 273 271 271 271 274
266 267 268 270 272 271 269 271 272 272 272 273 271 270 270 272 273 274 274 274 275 274 272 270 270 271 271 270 269 266 265 264 261 263 266 267 268 272 275 274 271 271 271 276
268 268 268 269 270 269 268 268 269 271 272 272 272 272 271 272 274 272 270 271 272 272 270 268 268 269 269 268 266 265 265 263 261 262 263 266 269 271 273 274 273 272 273 277
269 269 270 270 268 267 266 267 269 271 271 271 270 269 270 272 272 270 269 270 270 270 268 268 268 266 267 268 266 265 266 264 261 262 263 265 268 269 270 273 273 273 275 276
267 267 267 267 266 265 265 265 267 269 269 267 267 267 268 268 267 267 268 269 270 268 267 267 266 266 267 268 267 266 265 265 263 263 263 264 265 266 267 270 272 272 273 274
266 267 267 265 264 264 265 266 266 267 267 266 267 268 267 266 266 266 267 268 269 268 266 265 266 266 266 266 266 266 267 266 264 262 263 264 265 267 268 269 270 271 271 271
264 266 267 267 266 264 264 264 264 265 265 265 265 266 265 265 265 265 266 267 267 266 265 263 264 266 266 265 265 265 267 266 266 264 264 265 265 267 269 270 269 269 269 270
266 266 267 268 266 264 264 263 263 263 263 263 263 264 264 264 264 265 267 266 265 264 262 263 264 264 264 266 265 266 266 264 266 265 263 263 265 268 268 269 270 270 270 272
266 266 267 268 266 263 263 263 262 263 263 263 263 263 263 263 263 265 265 265 264 263 263 263 264 264 264 265 266 267 265 264 264 264 264 265 266 268 269 271 270 271 271 272
266 267 268 268 266 264 263 263 263 263 264 263 261 261 263 263 262 263 263 263 262 261 262 263 264 265 265 266 266 266 265 264 263 262 263 265 266 267 269 271 272 272 271 272
265 266 267 267 266 264 263 263 263 263 263 262 260 261 262 263 263 262 263 263 261 259 260 261 263 264 264 265 265 266 266 264 263 263 264 265 266 267 269 271 273 274 273 273
265 266 267 268 267 265 263 263 263 263 263 261 259 261 261 262 262 263 263 263 261 261 260 260 261 262 262 263 265 265 265 263 263 263 264 265 266 267 269 271 273 274 274 275
265 267 267 267 267 266 264 263 264 264 262 259 259 261 261 262 262 263 264 262 261 261 259 259 260 261 262 263 264 265 264 265 264 263 263 265 266 267 269 270 272 273 273 274
264 265 267 266 265 265 264 262 262 262 260 258 259 261 261 260 261 262 264 264 264 264 262 261 261 261 262 261 263 265 265 265 266 266 265 264 265 266 269 270 271 272 273 273
264 264 264 265 264 264 264 262 261 261 259 257 258 259 260 260 261 263 264 265 266 266 266 266 264 262 261 261 261 263 264 264 265 266 265 264 265 266 267 270 272 273 273 273
266 265 264 264 263 263 262 262 261 260 259 259 260 260 261 262 264 265 265 265 266 267 266 266 264 262 261 261 262 262 263 264 265 266 266 266 266 267 268 269 271 272 273 274
266 265 264 264 263 262 261 261 261 259 259 260 261 261 262 264 265 266 266 266 267 266 265 265 264 263 263 263 263 263 264 264 266 266 267 267 267 268 269 270 271 271 272 273
264 264 264 264 263 261 260 260 260 259 259 261 262 263 265 266 267 268 267 267 267 266 266 266 265 264 264 263 263 263 264 265 265 265 266 267 267 268 270 271 272 273 273 274
263 263 263 262 261 260 259 260 259 258 259 262 263 265 267 268 269 269 269 269 268 267 267 266 263 263 263 263 263 264 265 266 266 266 266 268 268 268 269 270 272 273 274 275
262 263 263 262 261 260 259 261 260 258 260 263 265 267 269 269 268 268 269 268 267 267 266 264 264 266 266 264 263 264 265 267 268 267 267 267 267 267 268 269 271 273 275 277
262 263 263 262 262 261 261 262 261 263 262 264 266 268 269 269 268 268 268 268 269 268 266 265 265 267 267 265 264 265 265 265 266 267 267 265 264 265 266 268 271 273 276 277
263 264 263 262 261 260 260 261 263 264 265 266 267 267 268 267 268 268 269 269 269 268 267 267 267 268 268 267 266 265 264 263 264 265 266 266 265 265 266 268 270 273 276 277
Height
5814 5814 5814 5814 5814 5815 5815 5816 5816 5816 5815 5814 5812 5812 5811 5810 5810 5809 5808 5808 5807 5807 5807 5807 5808 5808 5809 5810 5811 5811 5812 5812 5812 5812 5813 5813 5813 5814 5814 5814 5815 5815 5815 5816
5809 5809 5809 5809 5810 5810 5810 5810 5810 5810 5810 5809 5808 5807 5807 5806 5806 5805 5804 5803 5803 5802 5802 5802 5803 5804 5805 5806 5806 5807 5807 5808 5808 5808 5808 5809 5809 5809 5810 5810 5810 5811 5811 5811
5803 5803 5803 5804 5805 5805 5805 5805 5805 5805 5806 5804 5803 5802 5802 5802 5801 5800 5800 5799 5798 5798 5797 5798 5798 5799 5800 5801 5802 5802 5803 5803 5803 5804 5804 5804 5805 5805 5805 5806 5806 5807 5807 5807
5796 5798 5797 5801 5800 5799 5799 5799 5799 5799 5798 5798 5798 5798 5797 5796 5796 5795 5795 5794 5793 5793 5793 5793 5794 5794 5795 5796 5797 5798 5798 5799 5799 5799 5800 5800 5800 5801 5801 5802 5802 5802 5802 5803
5790 5790 5791 5793 5793 5793 5794 5793 5793 5793 5792 5792 5792 5792 5791 5791 5790 5790 5789 5789 5788 5788 5788 5789 5789 5790 5790 5791 5792 5793 5793 5794 5795 5795 5795 5796 5796 5797 5797 5797 5798 5798 5798 5798
5784 5783 5784 5787 5787 5787 5788 5787 5787 5787 5786 5786 5786 5786 5786 5785 5785 5784 5784 5783 5783 5783 5784 5784 5785 5785 5785 5786 5787 5788 5788 5789 5790 5790 5791 5792 5792 5792 5793 5793 5794 5794 5794 5794
5776 5776 5777 5780 5780 5780 5782 5781 5781 5780 5780 5780 5779 5779 5780 5779 5779 5779 5778 5778 5778 5778 5779 5779 5780 5780 5780 5781 5782 5783 5783 5784 5785 5786 5786 5787 5788 5788 5788 5789 5789 5789 5790 5790
5770 5770 5772 5772 5772 5773 5773 5773 5773 5773 5773 5773 5773 5773 5773 5773 5773 5773 5773 5773 5773 5773 5774 5774 5774 5775 5776 5776 5777 5777 5778 5779 5780 5781 5782 5782 5783 5784 5784 5784 5785 5785 5785 5785
5763 5765 5765 5764 5764 5765 5765 5765 5765 5766 5766 5766 5766 5766 5766 5767 5767 5767 5767 5767 5767 5767 5768 5768 5769 5770 5770 5771 5772 5772 5773 5773 5774 5775 5776 5777 5778 5779 5779 5780 5780 5780 5780 5781
5754 5755 5756 5756 5756 5756 5757 5757 5758 5758 5758 5758 5758 5759 5759 5760 5760 5760 5760 5761 5761 5761 5762 5763 5763 5764 5765 5765 5766 5767 5767 5768 5769 5770 5770 5771 5772 5773 5774 5774 5774 5775 5775 5775
5746 5747 5747 5747 5748 5749 5749 5749 5750 5750 5751 5750 5750 5751 5751 5752 5752 5752 5753 5753 5754 5754 5755 5756 5757 5758 5759 5759 5760 5761 5761 5762 5763 5764 5764 5765 5766 5767 5768 5768 5768 5769 5769 5769
5738 5739 5739 5739 5739 5740 5740 5741 5742 5742 5742 5743 5743 5743 5744 5744 5744 5744 5745 5746 5747 5748 5748 5750 5750 5751 5752 5753 5753 5754 5755 5756 5756 5757 5758 5759 5760 5760 5761 5761 5762 5762 5763 5763
5730 5730 5730 5730 5731 5731 5732 5732 5733 5733 5734 5734 5735 5735 5735 5736 5736 5737 5737 5738 5739 5740 5741 5742 5743 5744 5745 5746 5746 5747 5748 5749 5750 5751 5752 5753 5753 5754 5755 5755 5755 5756 5756 5756
5720 5721 5721 5722 5722 5722 5723 5723 5724 5724 5725 5725 5726 5727 5727 5727 5728 5729 5730 5730 5731 5732 5733 5734 5736 5737 5737 5738 5739 5740 5741 5742 5743 5744 5745 5746 5746 5747 5748 5748 5748 5749 5749 5749
5712 5712 5712 5713 5713 5713 5714 5714 5715 5715 5716 5716 5717 5718 5718 5719 5720 5720 5721 5722 5723 5725 5726 5727 5728 5729 5729 5730 5731 5732 5733 5734 5735 5736 5737 5738 5739 5739 5740 5741 5741 5741 5741 5741
5703 5703 5703 5703 5704 5704 5705 5705 5706 5706 5707 5707 5709 5709 5710 5710 5711 5712 5713 5714 5715 5716 5718 5719 5720 5721 5721 5722 5723 5724 5725 5726 5727 5728 5729 5730 5731 5731 5732 5733 5733 5733 5733 5733
5693 5694 5694 5695 5695 5695 5696 5696 5696 5697 5698 5699 5700 5701 5701 5702 5703 5704 5705 5705 5706 5708 5709 5710 5711 5712 5713 5714 5715 5716 5717 5718 5719 5720 5721 5722 5722 5723 5723 5724 5724 5724 5724 5724
5684 5685 5685 5685 5686 5686 5686 5687 5688 5688 5689 5690 5691 5692 5693 5694 5695 5696 5696 5697 5698 5699 5700 5701 5702 5703 5704 5705 5707 5707 5708 5709 5710 5711 5712 5713 5713 5714 5714 5715 5715 5715 5715 5715
5675 5675 5676 5676 5676 5677 5677 5678 5678 5679 5680 5682 5683 5684 5685 5685 5686 5687 5688 5688 5689 5690 5692 5692 5693 5694 5695 5696 5697 5698 5699 5700 5701 5701 5702 5703 5704 5704 5705 5705 5706 5706 5705 5706
5666 5666 5667 5667 5667 5668 5668 5669 5670 5671 5672 5673 5674 5675 5676 5677 5677 5678 5679 5680 5680 5681 5682 5683 5683 5684 5685 5687 5688 5689 5689 5690 5691 5692 5692 5693 5694 5695 5695 5696 5696 5696 5696 5696
5657 5657 5658 5658 5659 5659 5660 5661 5662 5663 5664 5664 5665 5666 5667 5668 5669 5669 5669 5670 5671 5672 5672 5673 5673 5674 5675 5677 5678 5679 5680 5680 5681 5682 5682 5683 5684 5685 5685 5686 5686 5686 5686 5686
5648 5649 5649 5650 5651 5651 5652 5653 5654 5655 5656 5656 5657 5658 5658 5659 5660 5660 5661 5661 5662 5662 5662 5663 5664 5664 5665 5666 5667 5668 5669 5670 5671 5672 5672 5673 5674 5674 5675 5676 5676 5676 5676 5676
5639 5640 5641 5642 5642 5643 5644 5645 5646 5647 5648 5648 5649 5649 5650 5650 5651 5651 5651 5652 5652 5652 5653 5653 5654 5654 5655 5655 5656 5657 5659 5660 5661 5661 5662 5663 5663 5664 5665 5665 5665 5665 5665 5665
5631 5631 5632 5633 5634 5635 5636 5637 5637 5638 5639 5640 5641 5641 5641 5641 5642 5642 5642 5642 5642 5643 5643 5643 5644 5644 5645 5646 5647 5647 5648 5649 5650 5651 5652 5652 5653 5653 5654 5654 5654 5654 5655 5654
5622 5623 5624 5625 5625 5626 5627 5628 5629 5630 5631 5631 5632 5632 5632 5632 5633 5633 5633 5633 5633 5634 5634 5634 5634 5635 5635 5635 5636 5637 5638 5639 5640 5640 5641 5642 5642 5643 5643 5644 5644 5644 5644 5644
5614 5614 5615 5616 5617 5618 5619 5620 5621 5621 5622 5623 5623 5623 5623 5623 5624 5624 5624 5624 5624 5625 5625 5625 5625 5625 5625 5626 5626 5627 5628 5628 5629 5630 5630 5631 5631 5632 5633 5633 5633 5633 5633 5633
5605 5606 5606 5607 5608 5609 5610 5611 5612 5613 5613 5614 5614 5614 5614 5614 5615 5615 5615 5615 5615 5615 5615 5615 5615 5615 5615 5616 5616 5616 5617 5618 5619 5619 5620 5620 5621 5621 5622 5622 5623 5623 5622 5622